Regional Weather Roundup
Issued by NWS

Home | Current Version | Previous Version | Graphics & Text | Print | Product List | Glossary On
Versions: 1 2 3 4 5 6 7 8 9 10 11 12 13 14 15 16 17 18 19 20 21 22 23 24 25 26 27 28 29 30 31 32 33 34 35 36 37 38 39 40 41 42 43 44 45 46 47 48 49 50
852
ASUS43 KLSX 232007
RWRMO

WEATHER SUMMARY FOR MISSOURI
NATIONAL WEATHER SERVICE SPRINGFIELD MO
300 PM CDT FRI JUN 23 2017

NOTE: "FAIR" INDICATES FEW OR NO CLOUDS BELOW 12,000 FEET WITH NO
       SIGNIFICANT WEATHER AND/OR OBSTRUCTIONS TO VISIBILITY.
       CURRENT SKY AND/OR WEATHER CONDITIONS ARE NOT AVAILABLE FOR
       CHILLICOTHE AND FARMINGTON.

MOZ001>031-035>038-043-044-053-054-232100-
...NORTHERN AND WESTERN MISSOURI...

CITY           SKY/WX    TMP DP  RH WIND       PRES   REMARKS
KANSAS CTY INT PTSUNNY   78  51  38 N20G28    29.96R
KANSAS C DTWN  SUNNY     82  52  35 NW17G25   29.93R
LEE`S SUMMIT   MOSUNNY   82  55  39 NW22G30   29.93R
ST JOSEPH      MOSUNNY   78  55  44 N17G26    29.96S
CHILLICOTHE      N/A     81  50  33 VRB7G20   29.91R
KIRKSVILLE     SUNNY     82  52  35 NW13G23   29.88R

$$
MOZ066>068-077>081-088>096-101>105-232100-
...SOUTHWEST MISSOURI...

CITY           SKY/WX    TMP DP  RH WIND       PRES   REMARKS
SPRINGFIELD    CLOUDY    73  70  90 N12       29.90R
JOPLIN         MOSUNNY   82  64  54 N15G24    29.91R
BRANSON        PTSUNNY   66  66 100 W6        29.90R

$$
MOZ032>034-039>042-045>050-055>058-069>072-232100-
...CENTRAL MISSOURI...

CITY           SKY/WX    TMP DP  RH WIND       PRES   REMARKS
COLUMBIA       CLOUDY    79  56  45 N13       29.87R
JEFFERSON CITY CLOUDY    79  56  45 NW6       29.85R
ROLLA          CLOUDY    73  61  65 NW7       29.85R
SEDALIA        CLOUDY    83  61  47 N17G24    29.89S
WHITEMAN AFB   MOSUNNY   83  53  34 N23G31    29.88S
WARRENSBURG    SUNNY     82  50  32 NW12      29.90S
OSAGE BEACH    CLOUDY    72  65  78 CALM      29.89R

$$
MOZ051-052-059>065-232100-
...EAST CENTRAL MISSOURI...

CITY           SKY/WX    TMP DP  RH WIND       PRES   REMARKS
ST LOUIS INTL  PTSUNNY   87  56  34 N17G28    29.77R
SPIRIT OF STL  PTSUNNY   84  57  39 N10       29.77R
ST CHARLES     SUNNY     84  53  34 N17G24    29.76R

$$
MOZ072>076-082>087-097>100-106>115-232100-
...SOUTH CENTRAL AND SOUTHEAST MISSOURI...

CITY           SKY/WX    TMP DP  RH WIND       PRES   REMARKS
CAPE GIRARDEAU CLOUDY    86  73  65 NW7       29.69R HX  93
FARMINGTON     PTSUNNY   83  70  64 NW15G22   29.79R
POPLAR BLUFF   CLOUDY    89  72  56 NW12      29.73R HX  96
WEST PLAINS    LGT RAIN  71  68  90 NW12      29.89R

$$



USA.gov is the U.S. government's official web portal to all federal, state and local government web resources and services.